CZ-12 R/B

基本信息
目录编号:
66421
目录名称:
CZ-12 R/B
国际标识:
2025-258K
轨道中心:
EARTH
物体状态:
在轨
发射日期:
2025-11-10 UTC
国别:
中国 (CN)
轨道信息
数据来源: 国际轨道数据
星历时间: 2026-09-05T13:54:19+0800
半长轴: 7128.602km
偏心率: 0.0064298
轨道倾角: 49.995°
近地点辐角: 127.578°
升交点赤经: 181.347°
平近点角: 233.100°
近地点: 704.629km
远地点: 796.301km
周期: 99.831分钟
每日圈数: 14.424349
详细信息
发射场:
WSC
轨道高度:
LEO
数据来源:
AOE Working Group
参考系:
TEME
时间系统:
UTC
历元类型:
SGP4
2D轨道图
3D轨道图
轨道高度分析图
轨道倾角分析图
轨道综合分析图
查看轨道综合分析图